Year,Month,Day,Hour,Minute,Value (Times are PST for temperature in C)
2015,07,06,00,00,17.80
2015,07,06,00,01,17.80
2015,07,06,00,02,17.90
2015,07,06,00,03,17.90
2015,07,06,00,04,17.90
2015,07,06,00,05,17.90
2015,07,06,00,06,17.90
2015,07,06,00,07,18.00
2015,07,06,00,08,18.00
2015,07,06,00,09,18.00
2015,07,06,00,10,18.10
2015,07,06,00,11,18.10
2015,07,06,00,12,18.10
2015,07,06,00,13,18.10
2015,07,06,00,14,18.20
2015,07,06,00,15,18.20
2015,07,06,00,16,18.20
2015,07,06,00,17,18.20
2015,07,06,00,18,18.30
2015,07,06,00,19,18.30
2015,07,06,00,20,18.30
2015,07,06,00,21,18.30
2015,07,06,00,22,18.40
2015,07,06,00,23,18.40
2015,07,06,00,24,18.40
2015,07,06,00,25,18.40
2015,07,06,00,26,18.50
2015,07,06,00,27,18.50
2015,07,06,00,28,18.60
2015,07,06,00,29,18.60
2015,07,06,00,30,18.60
2015,07,06,00,31,18.70
2015,07,06,00,32,18.70
2015,07,06,00,33,18.80
2015,07,06,00,34,18.80
2015,07,06,00,35,18.80
2015,07,06,00,36,18.90
2015,07,06,00,37,18.90
2015,07,06,00,38,18.90
2015,07,06,00,39,19.00
2015,07,06,00,40,19.00
2015,07,06,00,41,19.10
2015,07,06,00,42,19.10
2015,07,06,00,43,19.10
2015,07,06,00,44,19.20
2015,07,06,00,45,19.20
2015,07,06,00,46,19.20
2015,07,06,00,47,19.30
2015,07,06,00,48,19.30
2015,07,06,00,49,19.30
2015,07,06,00,50,19.40
2015,07,06,00,51,19.40
2015,07,06,00,52,19.50
2015,07,06,00,53,19.50
2015,07,06,00,54,19.60
2015,07,06,00,55,19.60
2015,07,06,00,56,19.60
2015,07,06,00,57,19.70
2015,07,06,00,58,19.70
2015,07,06,00,59,19.70
2015,07,06,01,00,19.80
2015,07,06,01,01,19.80
2015,07,06,01,02,19.80
2015,07,06,01,03,19.90
2015,07,06,01,04,19.90
2015,07,06,01,05,20.00
2015,07,06,01,06,20.00
2015,07,06,01,07,20.10
2015,07,06,01,08,20.10
2015,07,06,01,09,20.20
2015,07,06,01,10,20.20
2015,07,06,01,11,20.20
2015,07,06,01,12,20.20
2015,07,06,01,13,20.20
2015,07,06,01,14,20.20
2015,07,06,01,15,20.20
2015,07,06,01,16,20.20
2015,07,06,01,17,20.20
2015,07,06,01,18,20.20
2015,07,06,01,19,20.20
2015,07,06,01,20,20.30
2015,07,06,01,21,20.30
2015,07,06,01,22,20.30
2015,07,06,01,23,20.30
2015,07,06,01,24,20.30
2015,07,06,01,25,20.30
2015,07,06,01,26,20.30
2015,07,06,01,27,20.30
2015,07,06,01,28,20.30
2015,07,06,01,29,20.30
2015,07,06,01,30,20.30
2015,07,06,01,31,20.30
2015,07,06,01,32,20.30
2015,07,06,01,33,20.30
2015,07,06,01,34,20.30
2015,07,06,01,35,20.30
2015,07,06,01,36,20.30
2015,07,06,01,37,20.30
2015,07,06,01,38,20.30
2015,07,06,01,39,20.30
2015,07,06,01,40,20.30
2015,07,06,01,41,20.30
2015,07,06,01,42,20.30
2015,07,06,01,43,20.30
2015,07,06,01,44,20.30
2015,07,06,01,45,20.30
2015,07,06,01,46,20.30
2015,07,06,01,47,20.30
2015,07,06,01,48,20.30
2015,07,06,01,49,20.30
2015,07,06,01,50,20.30
2015,07,06,01,51,20.20
2015,07,06,01,52,20.20
2015,07,06,01,53,20.20
2015,07,06,01,54,20.20
2015,07,06,01,55,20.20
2015,07,06,01,56,20.20
2015,07,06,01,57,20.20
2015,07,06,01,58,20.20
2015,07,06,01,59,20.20
2015,07,06,02,00,20.20
2015,07,06,02,01,20.30
2015,07,06,02,02,20.30
2015,07,06,02,03,20.40
2015,07,06,02,04,20.40
2015,07,06,02,05,20.40
2015,07,06,02,06,20.40
2015,07,06,02,07,20.40
2015,07,06,02,08,20.40
2015,07,06,02,09,20.40
2015,07,06,02,10,20.40
2015,07,06,02,11,20.40
2015,07,06,02,12,20.40
2015,07,06,02,13,20.40
2015,07,06,02,14,20.40
2015,07,06,02,15,20.40
2015,07,06,02,16,20.40
2015,07,06,02,17,20.40
2015,07,06,02,18,20.50
2015,07,06,02,19,20.50
2015,07,06,02,20,20.50
2015,07,06,02,21,20.50
2015,07,06,02,22,20.60
2015,07,06,02,23,20.60
2015,07,06,02,24,20.60
2015,07,06,02,25,20.60
2015,07,06,02,26,20.60
2015,07,06,02,27,20.60
2015,07,06,02,28,20.60
2015,07,06,02,29,20.60
2015,07,06,02,30,20.60
2015,07,06,02,31,20.70
2015,07,06,02,32,20.70
2015,07,06,02,33,20.70
2015,07,06,02,34,20.70
2015,07,06,02,35,20.70
2015,07,06,02,36,20.70
2015,07,06,02,37,20.70
2015,07,06,02,38,20.70
2015,07,06,02,39,20.70
2015,07,06,02,40,20.70
2015,07,06,02,41,20.70
2015,07,06,02,42,20.70
2015,07,06,02,43,20.80
2015,07,06,02,44,20.80
2015,07,06,02,45,20.80
2015,07,06,02,46,20.80
2015,07,06,02,47,20.80
2015,07,06,02,48,20.80
2015,07,06,02,49,20.80
2015,07,06,02,50,20.90
2015,07,06,02,51,20.90
2015,07,06,02,52,21.00
2015,07,06,02,53,21.10
2015,07,06,02,54,21.10
2015,07,06,02,55,21.10
2015,07,06,02,56,21.20
2015,07,06,02,57,21.20
2015,07,06,02,58,21.20
2015,07,06,02,59,21.20
2015,07,06,03,00,21.20
2015,07,06,03,01,21.20
2015,07,06,03,02,21.20
2015,07,06,11,03,21.20
2015,07,06,11,04,21.20
2015,07,06,11,05,21.30
2015,07,06,11,06,21.30
2015,07,06,11,07,21.30
2015,07,06,11,08,21.30
2015,07,06,11,09,21.40
2015,07,06,11,10,21.40
2015,07,06,11,11,21.40
2015,07,06,11,12,21.50
2015,07,06,11,13,21.50
2015,07,06,11,14,21.50
2015,07,06,11,15,21.50
2015,07,06,11,16,21.50
2015,07,06,11,17,21.50
2015,07,06,11,18,21.50
2015,07,06,11,19,21.50
2015,07,06,11,20,21.50
2015,07,06,11,21,21.50
2015,07,06,11,22,21.50
2015,07,06,11,23,21.50
2015,07,06,11,24,21.50
2015,07,06,11,25,21.50
2015,07,06,11,26,21.50
2015,07,06,11,27,21.50
2015,07,06,11,28,21.40
2015,07,06,11,29,21.40
2015,07,06,11,30,21.40
2015,07,06,11,31,21.40
2015,07,06,11,32,21.40
2015,07,06,11,33,21.40
2015,07,06,11,34,21.50
2015,07,06,11,35,21.60
2015,07,06,11,36,21.70
2015,07,06,11,37,21.80
2015,07,06,11,38,21.80
2015,07,06,11,39,21.80
2015,07,06,11,40,21.80
2015,07,06,11,41,21.90
2015,07,06,11,42,21.90
2015,07,06,11,43,22.00
2015,07,06,11,44,22.00
2015,07,06,11,45,22.10
2015,07,06,11,46,22.20
2015,07,06,11,47,22.20
2015,07,06,11,48,22.30
2015,07,06,11,49,22.30
2015,07,06,11,50,22.40
2015,07,06,11,51,22.40
2015,07,06,11,52,22.30
2015,07,06,11,53,22.30
2015,07,06,11,54,22.30
2015,07,06,11,55,22.30
2015,07,06,11,56,22.30
2015,07,06,11,57,22.30
2015,07,06,11,58,22.30
2015,07,06,11,59,22.30
2015,07,06,12,00,22.30
2015,07,06,12,01,22.30
2015,07,06,12,02,22.20
2015,07,06,12,03,22.20
2015,07,06,12,04,22.20
2015,07,06,12,05,22.10
2015,07,06,12,06,22.10
2015,07,06,12,07,22.10
2015,07,06,12,08,22.10
2015,07,06,12,09,22.10
2015,07,06,12,10,22.10
2015,07,06,12,11,22.10
2015,07,06,12,12,22.10
2015,07,06,12,13,22.20
2015,07,06,12,14,22.20
2015,07,06,12,15,22.20
2015,07,06,12,16,22.20
2015,07,06,12,17,22.20
2015,07,06,12,18,22.20
2015,07,06,12,19,22.20
2015,07,06,12,20,22.10
2015,07,06,12,21,22.10
2015,07,06,12,22,22.10
2015,07,06,12,23,22.10
2015,07,06,12,24,22.10
2015,07,06,12,25,22.10
2015,07,06,12,26,22.10
2015,07,06,12,27,22.20
2015,07,06,12,28,22.20
2015,07,06,12,29,22.30
2015,07,06,12,30,22.30
2015,07,06,12,31,22.40
2015,07,06,12,32,22.50
2015,07,06,12,33,22.60
2015,07,06,12,34,22.60
2015,07,06,12,35,22.70
2015,07,06,12,36,22.70
2015,07,06,12,37,22.70
2015,07,06,12,38,22.80
2015,07,06,12,39,22.80
2015,07,06,12,40,22.80
2015,07,06,12,41,22.90
2015,07,06,12,42,23.00
2015,07,06,12,43,23.20
2015,07,06,12,44,23.30
2015,07,06,12,45,23.40
2015,07,06,12,46,23.50
2015,07,06,12,47,23.60
2015,07,06,12,48,23.60
2015,07,06,12,49,23.70
2015,07,06,12,50,23.80
2015,07,06,12,51,23.90
2015,07,06,12,52,24.00
2015,07,06,12,53,24.10
2015,07,06,12,54,24.10
2015,07,06,12,55,24.20
2015,07,06,12,56,24.20
2015,07,06,12,57,24.20
2015,07,06,12,58,24.20
2015,07,06,12,59,24.20
2015,07,06,13,00,24.30
2015,07,06,13,01,24.30
2015,07,06,13,02,24.30
2015,07,06,13,03,24.30
2015,07,06,13,04,24.30
2015,07,06,13,05,24.30
2015,07,06,13,06,24.30
2015,07,06,13,07,24.30
2015,07,06,13,08,24.30
2015,07,06,13,09,24.30
2015,07,06,13,10,24.30
2015,07,06,13,11,24.20
2015,07,06,13,12,24.10
2015,07,06,13,13,24.00
2015,07,06,13,14,23.90
2015,07,06,13,15,23.90
2015,07,06,13,16,23.80
2015,07,06,13,17,23.80
2015,07,06,13,18,23.70
2015,07,06,13,19,23.60
2015,07,06,13,20,23.50
2015,07,06,13,21,23.50
2015,07,06,13,22,23.50
2015,07,06,13,23,23.40
2015,07,06,13,24,23.40
2015,07,06,13,25,23.40
2015,07,06,13,26,23.40
2015,07,06,13,27,23.40
2015,07,06,13,28,23.40
2015,07,06,13,29,23.40
2015,07,06,13,30,23.50
2015,07,06,13,31,23.60
2015,07,06,13,32,23.60
2015,07,06,13,33,23.50
2015,07,06,13,34,23.40
2015,07,06,13,35,23.30
2015,07,06,13,36,23.30
2015,07,06,13,37,23.20
2015,07,06,13,38,23.20
2015,07,06,13,39,23.20
2015,07,06,13,40,23.10
2015,07,06,13,41,23.10
2015,07,06,13,42,23.00
2015,07,06,13,43,23.00
2015,07,06,13,44,23.00
2015,07,06,13,45,23.10
2015,07,06,13,46,23.20
2015,07,06,13,47,23.30
2015,07,06,13,48,23.40
2015,07,06,13,49,23.50
2015,07,06,13,50,23.60
2015,07,06,13,51,23.70
2015,07,06,13,52,23.80
2015,07,06,13,53,23.90
2015,07,06,13,54,24.00
2015,07,06,13,55,24.00
2015,07,06,13,56,24.10
2015,07,06,13,57,24.10
2015,07,06,13,58,24.10
2015,07,06,13,59,24.10
2015,07,06,14,00,24.10
2015,07,06,14,01,24.10
2015,07,06,14,02,24.20
2015,07,06,14,03,24.20
2015,07,06,14,04,24.20
2015,07,06,14,05,24.20
2015,07,06,14,06,24.20
2015,07,06,14,07,24.30
2015,07,06,14,08,24.30
2015,07,06,14,09,24.30
2015,07,06,14,10,24.40
2015,07,06,14,11,24.40
2015,07,06,14,12,24.40
2015,07,06,14,13,24.40
2015,07,06,14,14,24.30
2015,07,06,14,15,24.30
2015,07,06,14,16,24.20
2015,07,06,14,17,24.10
2015,07,06,14,18,24.10
2015,07,06,14,19,24.10
2015,07,06,14,20,24.10
2015,07,06,14,21,24.10
2015,07,06,14,22,24.10
2015,07,06,14,23,24.10
2015,07,06,14,24,23.90
2015,07,06,14,25,23.70
2015,07,06,14,26,23.60
2015,07,06,14,27,23.60
2015,07,06,14,28,23.50
2015,07,06,14,29,23.40
2015,07,06,14,30,23.30
2015,07,06,14,31,23.30
2015,07,06,14,32,23.30
2015,07,06,14,33,23.30
2015,07,06,14,34,23.30
2015,07,06,14,35,23.40
2015,07,06,14,36,23.40
2015,07,06,14,37,23.50
2015,07,06,14,38,23.40
2015,07,06,14,39,23.40
2015,07,06,14,40,23.30
2015,07,06,14,41,23.30
2015,07,06,14,42,23.30
2015,07,06,14,43,23.30
2015,07,06,14,44,23.30
2015,07,06,14,45,23.30
2015,07,06,14,46,23.30
2015,07,06,14,47,23.30
2015,07,06,14,48,23.30
2015,07,06,14,49,23.20
2015,07,06,14,50,23.20
2015,07,06,14,51,23.20
2015,07,06,14,52,23.20
2015,07,06,14,53,23.20
2015,07,06,14,54,23.20
2015,07,06,14,55,23.30
2015,07,06,14,56,23.30
2015,07,06,14,57,23.30
2015,07,06,14,58,23.40
2015,07,06,14,59,23.50
2015,07,06,15,00,23.50
2015,07,06,15,01,23.50
2015,07,06,15,02,23.40
2015,07,06,15,03,23.40
2015,07,06,15,04,23.40
2015,07,06,15,05,23.40
2015,07,06,15,06,23.30
2015,07,06,15,07,23.20
2015,07,06,15,08,23.20
2015,07,06,15,09,23.10
2015,07,06,15,10,23.10
2015,07,06,15,11,23.10
2015,07,06,15,12,23.10
2015,07,06,15,13,23.10
2015,07,06,15,14,23.20
2015,07,06,15,15,23.10
2015,07,06,15,16,23.10
2015,07,06,15,17,23.10
2015,07,06,15,18,23.20
2015,07,06,15,19,23.40
2015,07,06,15,20,23.50
2015,07,06,15,21,23.60
2015,07,06,15,22,23.60
2015,07,06,15,23,23.60
2015,07,06,15,24,23.70
2015,07,06,15,25,23.70
2015,07,06,15,26,23.60
2015,07,06,15,27,23.50
2015,07,06,15,28,23.40
2015,07,06,15,29,23.40
2015,07,06,15,30,23.30
2015,07,06,15,31,23.30
2015,07,06,15,32,23.30
2015,07,06,15,33,23.30
2015,07,06,15,34,23.30
2015,07,06,15,35,23.20
2015,07,06,15,36,23.20
2015,07,06,15,37,23.20
2015,07,06,15,38,23.10
2015,07,06,15,39,23.10
2015,07,06,15,40,23.10
2015,07,06,15,41,23.10
2015,07,06,15,42,23.20
2015,07,06,15,43,23.20
2015,07,06,15,44,23.30
2015,07,06,15,45,23.30
2015,07,06,15,46,23.40
2015,07,06,15,47,23.50
2015,07,06,15,48,23.50
2015,07,06,15,49,23.60
2015,07,06,15,50,23.60
2015,07,06,15,51,23.70
2015,07,06,15,52,23.80
2015,07,06,15,53,23.90
2015,07,06,15,54,23.90
2015,07,06,15,55,24.00
2015,07,06,15,56,24.10
2015,07,06,15,57,24.10
2015,07,06,15,58,24.20
2015,07,06,15,59,24.20
2015,07,06,16,00,24.30
2015,07,06,16,01,24.40
2015,07,06,16,02,24.40
2015,07,06,16,03,24.50
2015,07,06,16,04,24.60
2015,07,06,16,05,24.70
2015,07,06,16,06,24.70
2015,07,06,16,07,24.80
2015,07,06,16,08,24.70
2015,07,06,16,09,24.70
2015,07,06,16,10,24.70
2015,07,06,16,11,24.70
2015,07,06,16,12,24.70
2015,07,06,16,13,24.70
2015,07,06,16,14,24.80
2015,07,06,16,15,24.80
2015,07,06,16,16,24.70
2015,07,06,16,17,24.60
2015,07,06,16,18,24.50
2015,07,06,16,19,24.40
2015,07,06,16,20,24.30
2015,07,06,16,21,24.30
2015,07,06,16,22,24.20
2015,07,06,16,23,24.20
2015,07,06,16,24,24.00
2015,07,06,16,25,23.90
2015,07,06,16,26,23.90
2015,07,06,16,27,23.90
2015,07,06,16,28,24.00
2015,07,06,16,29,24.00
2015,07,06,16,30,24.00
2015,07,06,16,31,24.10
2015,07,06,16,32,24.10
2015,07,06,16,33,24.20
2015,07,06,16,34,24.30
2015,07,06,16,35,24.30
2015,07,06,16,36,24.30
2015,07,06,16,37,24.30
2015,07,06,16,38,24.30
2015,07,06,16,39,24.20
2015,07,06,16,40,24.20
2015,07,06,16,41,24.20
2015,07,06,16,42,24.10
2015,07,06,16,43,24.10
2015,07,06,16,44,24.10
2015,07,06,16,45,24.10
2015,07,06,16,46,24.10
2015,07,06,16,47,24.20
2015,07,06,16,48,24.20
2015,07,06,16,49,24.20
2015,07,06,16,50,24.20
2015,07,06,16,51,24.30
2015,07,06,16,52,24.30
2015,07,06,16,53,24.30
2015,07,06,16,54,24.30
2015,07,06,16,55,24.30
2015,07,06,16,56,24.20
2015,07,06,16,57,24.20
2015,07,06,16,58,24.10
2015,07,06,16,59,24.10
2015,07,06,17,00,24.10
2015,07,06,17,01,24.00
2015,07,06,17,02,24.00
2015,07,06,17,03,23.90
2015,07,06,17,04,23.90
2015,07,06,17,05,23.90
2015,07,06,17,06,23.80
2015,07,06,17,07,23.80
2015,07,06,17,08,23.80
2015,07,06,17,09,23.80
2015,07,06,17,10,23.80
2015,07,06,17,11,23.80
2015,07,06,17,12,23.80
2015,07,06,17,13,23.90
2015,07,06,17,14,23.90
2015,07,06,17,15,23.90
2015,07,06,17,16,23.90
2015,07,06,17,17,23.90
2015,07,06,17,18,23.90
2015,07,06,17,19,23.90
2015,07,06,17,20,24.00
2015,07,06,17,21,24.00
2015,07,06,17,22,23.90
2015,07,06,17,23,23.90
2015,07,06,17,24,23.90
2015,07,06,17,25,23.90
2015,07,06,17,26,23.80
2015,07,06,17,27,23.70
2015,07,06,17,28,23.70
2015,07,06,17,29,23.60
2015,07,06,17,30,23.60
2015,07,06,17,31,23.60
2015,07,06,17,32,23.60
2015,07,06,17,33,23.60
2015,07,06,17,34,23.60
2015,07,06,17,35,23.60
2015,07,06,17,36,23.60
2015,07,06,17,37,23.60
2015,07,06,17,38,23.60
2015,07,06,17,39,23.60
2015,07,06,17,40,23.60
2015,07,06,17,41,23.60
2015,07,06,17,42,23.60
2015,07,06,17,43,23.70
2015,07,06,17,44,23.60
2015,07,06,17,45,23.60
2015,07,06,17,46,23.60
2015,07,06,17,47,23.60
2015,07,06,17,48,23.60
2015,07,06,17,49,23.60
2015,07,06,17,50,23.60
2015,07,06,17,51,23.70
2015,07,06,17,52,23.70
2015,07,06,17,53,23.70
2015,07,06,17,54,23.70
2015,07,06,17,55,23.70
2015,07,06,17,56,23.70
2015,07,06,17,57,23.70
2015,07,06,17,58,23.70
2015,07,06,17,59,23.70
2015,07,06,18,00,23.60
2015,07,06,18,01,23.60
2015,07,06,18,02,23.60
2015,07,06,18,03,23.60
2015,07,06,18,04,23.50
2015,07,06,18,05,23.40
2015,07,06,18,06,23.40
2015,07,06,18,07,23.40
2015,07,06,18,08,23.30
2015,07,06,18,09,23.30
2015,07,06,18,10,23.30
2015,07,06,18,11,23.30
2015,07,06,18,12,23.30
2015,07,06,18,13,23.30
2015,07,06,18,14,23.30
2015,07,06,18,15,23.30
2015,07,06,18,16,23.30
2015,07,06,18,17,23.30
2015,07,06,18,18,23.30
2015,07,06,18,19,23.30
2015,07,06,18,20,23.30
2015,07,06,18,21,23.30
2015,07,06,18,22,23.30
2015,07,06,18,23,23.20
2015,07,06,18,24,23.20
2015,07,06,18,25,23.20
2015,07,06,18,26,23.20
2015,07,06,18,27,23.20
2015,07,06,18,28,23.20
2015,07,06,18,29,23.20
2015,07,06,18,30,23.20
2015,07,06,18,31,23.20
2015,07,06,18,32,23.20
2015,07,06,18,33,23.20
2015,07,06,18,34,23.20
2015,07,06,18,35,23.30
2015,07,06,18,36,23.30
2015,07,06,18,37,23.30
2015,07,06,18,38,23.30
2015,07,06,18,39,23.30
2015,07,06,18,40,23.20
2015,07,06,18,41,23.20
2015,07,06,18,42,23.20
2015,07,06,18,43,23.20
2015,07,06,18,44,23.20
2015,07,06,18,45,23.10
2015,07,06,18,46,23.10
2015,07,06,18,47,23.10
2015,07,06,18,48,23.10
2015,07,06,18,49,23.10
2015,07,06,18,50,23.10
2015,07,06,18,51,23.10
2015,07,06,18,52,23.10
2015,07,06,18,53,23.00
2015,07,06,18,54,23.00
2015,07,06,18,55,22.90
2015,07,06,18,56,22.90
2015,07,06,18,57,22.80
2015,07,06,18,58,22.80
2015,07,06,18,59,22.70
2015,07,06,19,00,22.70
2015,07,06,19,01,22.70
2015,07,06,19,02,22.70
2015,07,06,19,03,22.70
2015,07,06,19,04,22.60
2015,07,06,19,05,22.60
2015,07,06,19,06,22.60
2015,07,06,19,07,22.60
2015,07,06,19,08,22.60
2015,07,06,19,09,22.60
2015,07,06,19,10,22.60
2015,07,06,19,11,22.60
2015,07,06,19,12,22.50
2015,07,06,19,13,22.50
2015,07,06,19,14,22.50
2015,07,06,19,15,22.40
2015,07,06,19,16,22.40
2015,07,06,19,17,22.40
2015,07,06,19,18,22.40
2015,07,06,19,19,22.40
2015,07,06,19,20,22.40
2015,07,06,19,21,22.30
2015,07,06,19,22,22.30
2015,07,06,19,23,22.30
2015,07,06,19,24,22.30
2015,07,06,19,25,22.30
2015,07,06,19,26,22.30
2015,07,06,19,27,22.30
2015,07,06,19,28,22.30
2015,07,06,19,29,22.20
2015,07,06,19,30,22.20
2015,07,06,19,31,22.20
2015,07,06,19,32,22.20
2015,07,06,19,33,22.20
2015,07,06,19,34,22.20
2015,07,06,19,35,22.20
2015,07,06,19,36,22.20
2015,07,06,19,37,22.20
2015,07,06,19,38,22.20
2015,07,06,19,39,22.20
2015,07,06,19,40,22.20
2015,07,06,19,41,22.20
2015,07,06,19,42,22.10
2015,07,06,19,43,22.10
2015,07,06,19,44,22.10
2015,07,06,19,45,22.10
2015,07,06,19,46,22.10
2015,07,06,19,47,22.10
2015,07,06,19,48,22.10
2015,07,06,19,49,22.10
2015,07,06,19,50,22.10
2015,07,06,19,51,22.00
2015,07,06,19,52,22.00
2015,07,06,19,53,21.90
2015,07,06,19,54,21.90
2015,07,06,19,55,21.90
2015,07,06,19,56,21.90
2015,07,06,19,57,21.90
2015,07,06,19,58,21.80
2015,07,06,19,59,21.80
2015,07,06,20,00,21.80
2015,07,06,20,01,21.80
2015,07,06,20,02,21.70
2015,07,06,20,03,21.70
2015,07,06,20,04,21.70
2015,07,06,20,05,21.70
2015,07,06,20,06,21.60
2015,07,06,20,07,21.60
2015,07,06,20,08,21.60
2015,07,06,20,09,21.60
2015,07,06,20,10,21.50
2015,07,06,20,11,21.50
2015,07,06,20,12,21.50
2015,07,06,20,13,21.40
2015,07,06,20,14,21.40
2015,07,06,20,15,21.40
2015,07,06,20,16,21.40
2015,07,06,20,17,21.40
2015,07,06,20,18,21.30
2015,07,06,20,19,21.30
2015,07,06,20,20,21.30
2015,07,06,20,21,21.30
2015,07,06,20,22,21.30
2015,07,06,20,23,21.20
2015,07,06,20,24,21.20
2015,07,06,20,25,21.20
2015,07,06,20,26,21.20
2015,07,06,20,27,21.20
2015,07,06,20,28,21.10
2015,07,06,20,29,21.10
2015,07,06,20,30,21.10
2015,07,06,20,31,21.10
2015,07,06,20,32,21.00
2015,07,06,20,33,21.00
2015,07,06,20,34,21.00
2015,07,06,20,35,21.00
2015,07,06,20,36,20.90
2015,07,06,20,37,20.90
2015,07,06,20,38,20.80
2015,07,06,20,39,20.80
2015,07,06,20,40,20.80
2015,07,06,20,41,20.70
2015,07,06,20,42,20.70
2015,07,06,20,43,20.60
2015,07,06,20,44,20.60
2015,07,06,20,45,20.50
2015,07,06,20,46,20.50
2015,07,06,20,47,20.40
2015,07,06,20,48,20.40
2015,07,06,20,49,20.30
2015,07,06,20,50,20.30
2015,07,06,20,51,20.20
2015,07,06,20,52,20.20
2015,07,06,20,53,20.20
2015,07,06,20,54,20.10
2015,07,06,20,55,20.10
2015,07,06,20,56,20.10
2015,07,06,20,57,20.00
2015,07,06,20,58,20.00
2015,07,06,20,59,19.90
2015,07,06,21,00,19.90
2015,07,06,21,01,19.90
2015,07,06,21,02,19.80
2015,07,06,21,03,19.80
2015,07,06,21,04,19.80
2015,07,06,21,05,19.70
2015,07,06,21,06,19.70
2015,07,06,21,07,19.70
2015,07,06,21,08,19.70
2015,07,06,21,09,19.60
2015,07,06,21,10,19.60
2015,07,06,21,11,19.60
2015,07,06,21,12,19.60
2015,07,06,21,13,19.50
2015,07,06,21,14,19.50
2015,07,06,21,15,19.50
2015,07,06,21,16,19.40
2015,07,06,21,17,19.40
2015,07,06,21,18,19.40
2015,07,06,21,19,19.30
2015,07,06,21,20,19.30
2015,07,06,21,21,19.30
2015,07,06,21,22,19.20
2015,07,06,21,23,19.20
2015,07,06,21,24,19.20
2015,07,06,21,25,19.10
2015,07,06,21,26,19.10
2015,07,06,21,27,19.10
2015,07,06,21,28,19.00
2015,07,06,21,29,19.00
2015,07,06,21,30,19.00
2015,07,06,21,31,19.00
2015,07,06,21,32,19.00
2015,07,06,21,33,19.00
2015,07,06,21,34,19.00
2015,07,06,21,35,19.00
2015,07,06,21,36,19.00
2015,07,06,21,37,18.90
2015,07,06,21,38,18.90
2015,07,06,21,39,18.90
2015,07,06,21,40,18.90
2015,07,06,21,41,18.90
2015,07,06,21,42,18.80
2015,07,06,21,43,18.80
2015,07,06,21,44,18.80
2015,07,06,21,45,18.80
2015,07,06,21,46,18.70
2015,07,06,21,47,18.70
2015,07,06,21,48,18.70
2015,07,06,21,49,18.70
2015,07,06,21,50,18.60
2015,07,06,21,51,18.60
2015,07,06,21,52,18.60
2015,07,06,21,53,18.60
2015,07,06,21,54,18.50
2015,07,06,21,55,18.50
2015,07,06,21,56,18.50
2015,07,06,21,57,18.40
2015,07,06,21,58,18.40
2015,07,06,21,59,18.40
2015,07,06,22,00,18.40
2015,07,06,22,01,18.40
2015,07,06,22,02,18.30
2015,07,06,22,03,18.30
2015,07,06,22,04,18.30
2015,07,06,22,05,18.20
2015,07,06,22,06,18.20
2015,07,06,22,07,18.20
2015,07,06,22,08,18.20
2015,07,06,22,09,18.20
2015,07,06,22,10,18.10
2015,07,06,22,11,18.10
2015,07,06,22,12,18.10
2015,07,06,22,13,18.10
2015,07,06,22,14,18.00
2015,07,06,22,15,18.00
2015,07,06,22,16,18.00
2015,07,06,22,17,18.00
2015,07,06,22,18,17.90
2015,07,06,22,19,17.90
2015,07,06,22,20,17.90
2015,07,06,22,21,17.90
2015,07,06,22,22,17.90
2015,07,06,22,23,17.80
2015,07,06,22,24,17.80
2015,07,06,22,25,17.80
2015,07,06,22,26,17.80
2015,07,06,22,27,17.80
2015,07,06,22,28,17.80
2015,07,06,22,29,17.70
2015,07,06,22,30,17.70
2015,07,06,22,31,17.70
2015,07,06,22,32,17.70
2015,07,06,22,33,17.60
2015,07,06,22,34,17.60
2015,07,06,22,35,17.60
2015,07,06,22,36,17.60
2015,07,06,22,37,17.50
2015,07,06,22,38,17.50
2015,07,06,22,39,17.50
2015,07,06,22,40,17.40
2015,07,06,22,41,17.40
2015,07,06,22,42,17.40
2015,07,06,22,43,17.40
2015,07,06,22,44,17.40
2015,07,06,22,45,17.40
2015,07,06,22,46,17.30
2015,07,06,22,47,17.30
2015,07,06,22,48,17.30
2015,07,06,22,49,17.30
2015,07,06,22,50,17.30
2015,07,06,22,51,17.30
2015,07,06,22,52,17.30
2015,07,06,22,53,17.20
2015,07,06,22,54,17.20
2015,07,06,22,55,17.20
2015,07,06,22,56,17.20
2015,07,06,22,57,17.20
2015,07,06,22,58,17.20
2015,07,06,22,59,17.20
2015,07,06,23,00,17.20
2015,07,06,23,01,17.20
2015,07,06,23,02,17.20
2015,07,06,23,03,17.20
2015,07,06,23,04,17.20
2015,07,06,23,05,17.20
2015,07,06,23,06,17.20
2015,07,06,23,07,17.20
2015,07,06,23,08,17.20
2015,07,06,23,09,17.20
2015,07,06,23,10,17.20
2015,07,06,23,11,17.20
2015,07,06,23,12,17.20
2015,07,06,23,13,17.20
2015,07,06,23,14,17.20
2015,07,06,23,15,17.20
2015,07,06,23,16,17.20
2015,07,06,23,17,17.10
2015,07,06,23,18,17.10
2015,07,06,23,19,17.10
2015,07,06,23,20,17.10
2015,07,06,23,21,17.10
2015,07,06,23,22,17.10
2015,07,06,23,23,17.10
2015,07,06,23,24,17.10
2015,07,06,23,25,17.10
2015,07,06,23,26,17.10
2015,07,06,23,27,17.10
2015,07,06,23,28,17.10
2015,07,06,23,29,17.10
2015,07,06,23,30,17.10
2015,07,06,23,31,17.00
2015,07,06,23,32,17.00
2015,07,06,23,33,17.00
2015,07,06,23,34,17.00
2015,07,06,23,35,17.00
2015,07,06,23,36,17.00
2015,07,06,23,37,17.00
2015,07,06,23,38,16.90
2015,07,06,23,39,16.90
2015,07,06,23,40,16.90
2015,07,06,23,41,16.90
2015,07,06,23,42,16.90
2015,07,06,23,43,16.90
2015,07,06,23,44,16.90
2015,07,06,23,45,16.90
2015,07,06,23,46,16.80
2015,07,06,23,47,16.80
2015,07,06,23,48,16.80
2015,07,06,23,49,16.80
2015,07,06,23,50,16.80
2015,07,06,23,51,16.80
2015,07,06,23,52,16.80
2015,07,06,23,53,16.80
2015,07,06,23,54,16.80
2015,07,06,23,55,16.70
2015,07,06,23,56,16.70
2015,07,06,23,57,16.70
2015,07,06,23,58,16.70
2015,07,06,23,59,16.70
